Home > Weather > Vieux Fort > Past weeks

Flag for Saint Lucia Past Weather in Vieux Fort, Saint Lucia — Yesterday and Last 2 Weeks

Now
86 °F

Passing clouds.


Feels Like: 92 °F
Forecast: 80 / 88 °F
Wind: 17 mph from Southeast

Location: Hewanorra International Airport

Current Time: Jun 27, 2016 at 9:21:46 AM

Latest Report: Jun 27, 2016 at 9:00 AM


Visibility: N/A

Pressure: 30.01 "Hg

Humidity: 62%

Dew Point: 72 °F

Location of Vieux FortLocation

Past Weather in Vieux Fort — Graph

°F

Vieux Fort Temperature Yesterday

Maximum temperature yesterday: 88 °F (at 1:00 PM)
Minimum temperature yesterday: 81 °F (at 2:00 AM)
Average temperature yesterday: 83 °F

High & Low Weather Summary for the Past Weeks

 TemperatureHumidityPressure
High88 °F (Jun 13, 12:00 PM)100% (Jun 20, 4:00 AM)30.12 "Hg (Jun 20, 4:00 AM)
Low73 °F (Jun 25, 5:40 AM)62% (Jun 15, 1:00 PM)29.95 "Hg (Jun 18, 3:00 PM)
Average83 °F77%30.03 "Hg
* Reported Jun 12 8:00 AM — Jun 27 8:00 AM, Vieux Fort, Weather by CustomWeather, © 2016

Note: Actual official high and low records may vary slightly from our data, if they occured in-between our weather recording intervals... More about our weather records

Advertising

Vieux Fort Weather History for the Previous 24 Hours

Scroll right to see more
 ConditionsComfort  
Time TempWeatherWind HumidityBarometerVisibility
8:00 AM
Mon, Jun 27
84 °FPassing clouds.14 mph70%30.01 "HgN/A
7:00 AM82 °FPassing clouds.16 mph74%30.01 "HgN/A
6:00 AM81 °FPassing clouds.18 mph79%29.98 "HgN/A
5:00 AM81 °FPassing clouds.18 mph79%29.98 "HgN/A
4:00 AM79 °FPassing clouds.13 mph89%29.98 "HgN/A
3:00 AM81 °FPassing clouds.13 mph79%29.98 "HgN/A
2:00 AM81 °FPassing clouds.18 mph79%29.98 "HgN/A
1:00 AM81 °FPassing clouds.13 mph84%29.98 "HgN/A
12:00 AM81 °FPassing clouds.14 mph84%30.01 "HgN/A
11:00 PM
Sun, Jun 26
82 °FPassing clouds.14 mph79%30.01 "HgN/A
10:00 PM82 °FPassing clouds.13 mph74%30.01 "HgN/A
9:00 PM81 °FPassing clouds.12 mph84%30.01 "HgN/A
8:00 PM81 °FPassing clouds.13 mph84%29.98 "HgN/A
7:00 PM82 °FPassing clouds.13 mph74%29.98 "HgN/A
6:00 PM82 °FPassing clouds.14 mph74%29.95 "HgN/A
5:00 PM84 °FPassing clouds.14 mph74%29.95 "HgN/A
4:00 PM86 °FPassing clouds.14 mph66%29.95 "HgN/A
3:00 PM86 °FPartly sunny.13 mph70%29.95 "HgN/A
2:00 PM88 °FPassing clouds.15 mph66%29.98 "HgN/A
1:00 PM88 °FPassing clouds.13 mph70%29.98 "HgN/A
12:00 PM86 °FPartly sunny.13 mph70%30.01 "HgN/A
11:00 AM86 °FPassing clouds.14 mph70%30.01 "HgN/A
10:00 AM86 °FPartly sunny.13 mph70%30.01 "HgN/A
9:00 AM84 °FScattered clouds.14 mph70%30.01 "HgN/A
Weather by CustomWeather, © 2016

See weather overviewHow to use our weather pages